Weather History for Long Beach, CA

Change the Weather History Date:

Monday, December 10, 2012

  Actual Average Record
Temperature  
Mean Temperature 63 °F 56 °F  
Max Temperature 76 °F 67 °F 86 °F (1958)
Min Temperature 49 °F 46 °F 36 °F (1972)
Degree Days  
Heating Degree Days 2 9  
Month to date heating degree days 36 81  
Since 1 July heating degree days 113 230  
Cooling Degree Days 0 0  
Month to date cooling degree days 0 0  
Year to date cooling degree days 1383 1125  
Growing Degree Days 12 (Base 50)    
Moisture  
Dew Point 47 °F    
Average Humidity 58    
Maximum Humidity 93    
Minimum Humidity 23    
Precipitation  
Precipitation 0.00 in 0.06 in 0.34 in (1984)
Month to date precipitation 0.66 0.53  
Year to date precipitation 6.47 10.84  
Since 1 July precipitation 2.06 2.40  
Sea Level Pressure  
Sea Level Pressure 30.10 in    
Wind  
Wind Speed 3 mph (NW)    
Max Wind Speed 13 mph    
Max Gust Speed 15 mph    
Visibility 5 miles    
Events      
T = Trace of Precipitation, MM = Missing Value Source: NWS Daily Summary

Daily Weather History Graph

Daily Weather History Graph

Search for Another Location

Airport:

Trip Planner

Search our weather history database for the weather conditions in past years. The results will help you decide how hot, cold, wet, or windy it might be!

Date:

Astronomy

Dec. 10, 2012 Rise Set
Actual Time 6:47 AM PST 4:44 PM PST
Civil Twilight 6:19 AM PST 5:11 PM PST
Nautical Twilight 5:48 AM PST 5:42 PM PST
Astronomical Twilight 5:18 AM PST 6:13 PM PST
Moon 3:41 AM PST (12/10) 2:33 PM PST (12/10)
Length of Visible Light 10h 52m
Length of Day
9h 57m
Waning Crescent, 9% of the Moon is Illuminated
Dec 10
Waning Crescent
Dec 13
New
Dec 19
First Quarter
Dec 28
Full
Jan 4
Last Quarter

Hourly Weather History & Observations

Time (PST) Temp. Dew Point Humidity Pressure Visibility Wind Dir Wind Speed Gust Speed Precip Events Conditions
12:53 AM 53.1 °F 50.0 °F 89% 30.12 in 2.5 mi Calm Calm - N/A   Overcast
1:53 AM 51.1 °F 48.0 °F 89% 30.13 in 2.5 mi Calm Calm - N/A   Overcast
2:13 AM 51.8 °F 48.2 °F 88% 30.13 in 1.8 mi Calm Calm - N/A   Overcast
2:20 AM 51.8 °F 48.2 °F 88% 30.13 in 2.5 mi Calm Calm - N/A   Overcast
2:31 AM 51.8 °F 48.2 °F 88% 30.12 in 2.0 mi Calm Calm - N/A   Overcast
2:46 AM 51.8 °F 48.2 °F 88% 30.12 in 1.5 mi Calm Calm - N/A   Overcast
2:53 AM 52.0 °F 48.9 °F 89% 30.12 in 1.5 mi NNW 3.5 mph - N/A   Overcast
3:14 AM 51.8 °F 48.2 °F 88% 30.12 in 1.2 mi Calm Calm - N/A   Overcast
3:23 AM 51.8 °F 48.2 °F 88% 30.12 in 1.8 mi NW 3.5 mph - N/A   Overcast
3:32 AM 50.0 °F 46.4 °F 87% 30.11 in 2.0 mi NW 3.5 mph - N/A   Overcast
3:40 AM 50.0 °F 46.4 °F 87% 30.12 in 1.8 mi NW 3.5 mph - N/A   Overcast
3:53 AM 50.0 °F 48.0 °F 93% 30.12 in 1.8 mi Calm Calm - N/A   Overcast
4:09 AM 50.0 °F 48.2 °F 94% 30.11 in 1.8 mi Calm Calm - N/A   Scattered Clouds
4:39 AM 50.0 °F 46.4 °F 87% 30.11 in 2.0 mi Calm Calm - N/A   Clear
4:53 AM 50.0 °F 48.0 °F 93% 30.10 in 2.0 mi Calm Calm - N/A   Clear
5:53 AM 51.1 °F 46.9 °F 86% 30.11 in 2.5 mi WNW 3.5 mph - N/A   Clear
6:08 AM 50.0 °F 46.4 °F 87% 30.11 in 3.0 mi WNW 3.5 mph - N/A   Clear
6:53 AM 51.1 °F 46.0 °F 83% 30.11 in 4.0 mi NW 4.6 mph - N/A   Haze
7:53 AM 54.0 °F 45.0 °F 72% 30.12 in 5.0 mi Calm Calm - N/A   Haze
8:53 AM 60.1 °F 45.0 °F 57% 30.13 in 8.0 mi NW 4.6 mph - N/A   Clear
9:53 AM 66.0 °F 44.1 °F 45% 30.14 in 9.0 mi NNW 3.5 mph - N/A   Clear
10:53 AM 70.0 °F 42.1 °F 36% 30.13 in 9.0 mi Calm Calm - N/A   Clear
11:53 AM 73.0 °F 37.0 °F 27% 30.11 in 10.0 mi NW 3.5 mph - N/A   Clear
12:53 PM 73.9 °F 35.1 °F 24% 30.07 in 10.0 mi NNW 4.6 mph - N/A   Clear
1:53 PM 75.0 °F 36.0 °F 24% 30.06 in 10.0 mi NW 4.6 mph - N/A   Clear
2:53 PM 73.9 °F 41.0 °F 30% 30.05 in 10.0 mi West 4.6 mph - N/A   Clear
3:53 PM 70.0 °F 45.0 °F 41% 30.04 in 10.0 mi West 10.4 mph - N/A   Clear
4:53 PM 66.0 °F 46.9 °F 50% 30.04 in 10.0 mi West 8.1 mph - N/A   Clear
5:53 PM 62.1 °F 54.0 °F 75% 30.04 in 7.0 mi NW 8.1 mph - N/A   Clear
6:53 PM 61.0 °F 52.0 °F 72% 30.06 in 9.0 mi NW 3.5 mph - N/A   Clear
7:53 PM 59.0 °F 52.0 °F 78% 30.05 in 7.0 mi Calm Calm - N/A   Clear
8:53 PM 57.0 °F 51.1 °F 81% 30.06 in 6.0 mi Calm Calm - N/A   Haze
9:53 PM 55.9 °F 51.1 °F 84% 30.06 in 6.0 mi Calm Calm - N/A   Haze
10:53 PM 55.0 °F 50.0 °F 83% 30.06 in 5.0 mi Calm Calm - N/A   Haze
11:53 PM 53.1 °F 48.9 °F 86% 30.05 in 5.0 mi Calm Calm - N/A   Clear